星链-4206 (STARLINK-4206 )

导读 | 豆包AI

STARLINK-4206是美国SpaceX星链卫星互联网项目中的一颗卫星,于2022年6月17日发射升空,属于星链低轨卫星星座的组网卫星。它运行在近地轨道,旨在为全球提供高速低延迟的互联网覆盖服务,是星链大规模星座建设过程中补充组网的一部分,助力该星座逐步实现全球无缝网络覆盖的目标。

基本信息
目录编号:
52847
目录名称:
STARLINK-4206
国际标识:
2022-062T
轨道中心:
EARTH
卫星名称:
星链-4206
卫星全名:
星链-4206 (STARLINK-4206 )
卫星状态:
在轨 (已飞行1413 天)
发射日期:
2022-06-17 UTC
国别 :
美国 (US)
星等 :
--
轨道信息
数据来源 国际轨道数据 AOE轨道数据
星历时间 2026-04-30T20:18:47+0800
9小时前
查看轨道信息
2026-04-30T07:00:00+0800
22小时前
查看轨道信息
半长轴 6917.879km 6917.889km
偏心率 0.0000785 0.0001924
轨道倾角 53.215° 53.214°
近地点辐角 80.625° 53.437°
升交点赤经 161.476° 163.968°
平近点角 279.483° 171.937°
近地点 539.198km 538.42km
远地点 540.286km 541.084km
周期 95.438分钟 95.438分钟
每日圈数 15.088406 15.088374
详细信息
固有亮度:
5
最大亮度:
2.5
卫星平台:
Starlink v1.5
覆盖范围:
全球
运营商:
太空探索技术公司
运营商所在国:
美国
制造商(研发单位):
太空探索技术公司
制造商所在国:
美国
使用方式:
暂无
卫星简介
星链(Starlink)计划是由太空探索技术公司(SpaceX)提出的一个巨型低轨卫星互联网星座项目,计划在2019年至2024年间在太空搭建由约1.2万颗卫星组成的“星链”网络,其中1584颗将部署在地球上空550千米处的近地轨道,并从2020年开始工作。该卫星仍在工作。
2D轨道图
3D轨道图
轨道高度分析图
轨道倾角分析图
轨道综合分析图
查看轨道综合分析图